Regional Weather Roundup
Issued by NWS Grand Forks, ND

Home | Current Version | Previous Version | Text Only | Print | Product List | Glossary Off
Versions: 1 2 3 4 5 6 7 8 9 10 11 12 13 14 15 16 17 18 19 20 21 22 23 24 25 26 27 28 29 30 31 32 33 34 35 36 37 38 39 40 41 42 43 44 45 46 47 48 49 50

000
ASUS43 KFGF 011331
RWRFGF
PRAIRIE TO PINES  WEATHER ROUNDUP
NATIONAL WEATHER SERVICE EASTERN NORTH DAKOTA/GRAND FORKS ND
800 AM CDT FRI AUG 01 2014

 **SATELLITE DATA USED TO AUGMENT SKY COVER AT AUTOMATED STATIONS**
 *****  WEATHER ACROSS EASTERN NORTH DAKOTA  *****

CITY           SKY/WX    TMP DP  RH WIND       PRES   REMARKS
GRAND FORKS    SUNNY     63  60  90 CALM      30.05S
GRAND FRKS AFB SUNNY     63  63  99 NW2       30.07R
GRAND FRKS NWS   N/A     64 N/A N/A VRB5        N/A
DEVILS LAKE    SUNNY     64  59  82 CALM      30.07S
FARGO          SUNNY     62  59  90 NW5       30.06R
WAHPETON ARPT  SUNNY     64  57  77 CALM      30.07S
$$

 ***** WEATHER ACROSS CENTRAL AND WESTERN NORTH DAKOTA  *****

CITY           SKY/WX    TMP DP  RH WIND       PRES   REMARKS
BISMARCK       SUNNY     62  56  80 NE7       30.07S
MINOT          SUNNY     61  58  90 CALM      30.07R
JAMESTOWN      SUNNY     65  59  81 NE3       30.08R
MINOT AFB      SUNNY     61  60  99 N5        30.07R
GARRISON         N/A     64  59  83 E5        30.07R
WILLISTON      MOSUNNY   70  56  61 NE5       30.06R
DICKINSON      SUNNY     60  55  83 E5        30.04R
HETTINGER      SUNNY     56  52  86 CALM      30.07S
$$

 *****  OTHER AIRPORT OBSERVATIONS IN OUR AREA  *****

CITY           SKY/WX    TMP DP  RH WIND       PRES   REMARKS
WALHALLA         N/A     64  64 100 CALM        N/A
GRAFTON AIRPOR FAIR      64  59  82 NW3       30.07R FOG
VALLEY CITY AR FAIR      64  64 100 N3        30.08S
CANDO          FAIR      63  59  88 CALM      30.10S
CAVALIER APRT  FAIR      64  59  82 CALM      30.07S
GWINNER          N/A     66  63  88 SW3       30.09S
SHEYENNE NWR     N/A     62  60  92 CALM      29.95S
ROLLA          FAIR      63  63 100 CALM      30.12R
 ***** THE ABOVE OBSERVATIONS ARE NON NWS ARE NOT QUALITY
       CONTROLLED AND MAY MIS-REPORT RAIN FOR SNOW...
$$

  *****  WEATHER ACROSS NORTHERN MINNESOTA  *****

CITY           SKY/WX    TMP DP  RH WIND       PRES   REMARKS
FLAG ISLAND    SUNNY     66  59  77 NE3       30.05R
WARROAD        SUNNY     61  55  82 CALM      30.06R
ROSEAU         SUNNY     61  55  82 CALM      30.06S
HALLOCK        SUNNY     64  59  82 CALM      30.06S
THF RVR FALLS  SUNNY     63  57  82 CALM      30.07S
BAUDETTE       SUNNY     60  58  92 CALM      30.06R
WASKISH        SUNNY     61  61 100 CALM      30.05S
CROOKSTON      SUNNY     63  61  94 N3        30.07S
$$
  *****  WEATHER ACROSS CENTRAL AND WEST MINNESOTA  *****

CITY           SKY/WX    TMP DP  RH WIND       PRES   REMARKS
FOSSTON        SUNNY     64  61  88 CALM      30.08R FOG
BEMIDJI        SUNNY     62  59  92 W5        30.07R
PARK RAPIDS    MOSUNNY   60  58  92 CALM      30.07R
ELBOW LAKE     FAIR      64  61  87 W3        30.07S
WADENA         PTSUNNY   63  63 100 CALM      30.07S FOG
DETROIT LAKES  MOSUNNY   66  61  82 CALM      30.08S
MOORHEAD       SUNNY     63  63 100 CALM      30.06S
FERGUS FALLS   SUNNY     64  61  88 CALM      30.07S
MORRIS MN      SUNNY     64  61  88 CALM      30.07S
STAPLES        PTSUNNY   63  61  94 NW3       30.08R
$$
  *****  WEATHER ELSEWHERE ACROSS MINNESOTA  *****

CITY           SKY/WX    TMP DP  RH WIND       PRES   REMARKS
DULUTH         SUNNY     60  53  77 E3        30.07R
INTRNTL FALLS  SUNNY     57  56  96 CALM      30.05R
ELY            SUNNY     57  52  82 CALM      30.07S
CLOQUET        SUNNY     63  55  77 E5        30.07R
WHEATON        SUNNY     64  61  88 CALM      30.09S
BRAINERD       NOT AVBL
HIBBING        SUNNY     57  52  83 CALM      30.07R
ALEXANDRIA     MOSUNNY   63  60  90 W5        30.09R FOG
SAINT CLOUD    SUNNY     65  60  84 CALM      30.06R
MINNEAPOLIS    SUNNY     66  60  81 W3        30.06R
$$

  *****  WEATHER ACROSS SOUTH DAKOTA  *****

CITY           SKY/WX    TMP DP  RH WIND       PRES   REMARKS
SIOUX FALLS    MOSUNNY   61  58  90 CALM      30.11R
BROOKINGS      NOT AVBL
WATERTOWN      SUNNY     60  55  83 CALM      30.10S
HURON          SUNNY     60  57  89 SE5       30.08R
SISSETON         N/A     65  62  90 N3        30.07R
ABERDEEN       SUNNY     58  57  97 E5        30.08S
MITCHELL       SUNNY     61  60  97 SE5       30.10R
PIERRE         SUNNY     65  61  87 SE5       30.06R
MOBRIDGE       MOSUNNY   64  59  83 SE6       30.05R
RAPID CITY     SUNNY     65  55  70 CALM      30.10S
$$

  *****  SOME WEATHER IN NEARBY STATES *****

CITY           SKY/WX    TMP DP  RH WIND       PRES   REMARKS
GLASGOW MT     MOSUNNY   68  57  68 CALM      30.06R
GREAT FALLS MT PTCLDY    57  43  59 SW8       30.16R
CHEYENNE WY    SUNNY     54  45  71 W8        30.31R
SCOTTSBLUFF NE SUNNY     58  51  78 CALM      30.20R
OMAHA NE       PTSUNNY   68  61  78 E3        30.07R
DES MOINES IA  SUNNY     69  62  78 NE3       30.08S
DAVENPORT IA   MOSUNNY   68  60  75 S8        30.10R
CHICAGO IL     MOSUNNY   70  58  65 SW12      30.09R
EAU CLAIRE WI  SUNNY     65  61  87 SW3       30.05R
LA CROSSE WI   MOSUNNY   66  62  87 S5        30.06S
$$

  *****  SOME NATIONAL WEATHER *****

CITY           SKY/WX    TMP DP  RH WIND       PRES   REMARKS
LA GUARDIA NY  PTSUNNY   77  66  68 NW5       30.18S
RALEIGH NC     CLOUDY    72  68  87 NE9       30.12F
ATLANTA GA     CLOUDY    69  65  86 E13       30.09R
NEW ORLEANS LA CLOUDY    80  70  71 E3        30.00R
OKLAHOMA CITY  MOSUNNY   70  66  87 NW5       30.09S
ALBUQUERQUE NM PTCLDY    63  55  75 N7        30.29R
SALT LAKE CITY PTCLDY    67  52  58 NE3       30.15R
LOS ANGELES CA CLOUDY    68  63  84 CALM      29.91F
BOISE ID       CLEAR     68  49  50 SE9       30.08F
SEATTLE WA     CLOUDY    61  50  67 S3        30.07R
$$

*** WEATHER ACROSS MANITOBA...SASKATCHEWAN AND ONTARIO ***
                ***ONTARIO***

CITY           SKY/WX    TMP DP  RH WIND       PRES   REMARKS
GERALDTON      PTSUNNY   54  52  94 CALM      30.06R
THUNDER BAY    PTSUNNY   59  55  88 W2        30.06S
SIOUX LOOKOUT  MOSUNNY   61  57  88 NW5       30.06S
TORONTO        MOSUNNY   70  61  73 SW5       30.11R
BIG TROUT LK   CLOUDY    54  48  82 NE3       30.06R
PICKLE LAKE    MOSUNNY   59  50  72 SE5       30.04R
DRYDEN         SUNNY     59  57  94 E2        30.06R
KENORA         MOSUNNY   63  55  77 N3        30.08R
$$
                *** MANITOBA***

CITY           SKY/WX    TMP DP  RH WIND       PRES   REMARKS
BRANDON        PTSUNNY   63  59  88 NW2       30.10R
DAUPHIN        SUNNY     64  59  82 W5        30.05S
ISLAND LAKE    CLOUDY    63  59  88 CALM      30.05S
PILOT MOUND      N/A     61  57  88 SW2         N/A
THE PAS        CLOUDY    63  61  94 S3        29.99S
THOMPSON       LGT RAIN  61  61 100 SE7       29.98R FOG
WINNIPEG       MOSUNNY   63  59  88 CALM      30.07R
LYNN LAKE      MOSUNNY   64  61  88 N5        30.02S
CHURCHILL      PTSUNNY   59  52  77 S12       29.94F
GILLAM         CLOUDY    59  55  88 S6        30.00F
$$
                ***SASKATCHEWAN***

CITY           SKY/WX    TMP DP  RH WIND       PRES   REMARKS
ESTEVAN        CLOUDY    63  59  88 NE3       30.11
KINDERSLEY     PTSUNNY   61  61 100 W14       30.17R
LLOYDMINSTER   CLOUDY    61  59  94 NW3       30.14R
PRINCE ALBERT  PTSUNNY   64  61  88 E5        30.07F
REGINA         PTSUNNY   63  59  88 SE10      30.09S
YORKTON        NOT AVBL
N. BATTLEFORD    N/A     63  59  88 N16G24    30.11F
LA RONGE       PTSUNNY   63  61  94 NW7       30.08S
SASKATOON      PTSUNNY   61  59  94 CALM      30.11S
SWIFT CURRENT  SUNNY     57  54  88 W8        30.12R
$$
NOTE: THESE ARE AUTOMATED STATIONS WITH LIMITED QUALITY CONTROL
      "FAIR" INDICATES FEW OR NO CLOUDS BELOW 12,000 FEET WITH NO
      SIGNIFICANT WEATHER AND/OR OBSTRUCTIONS TO VISIBILITY.
      SKY/WX - SKY CONDITION AND SIGNIFICANT WEATHER.
      TMP - AIR TEMPERATURE.    DP   - DEWPOINT TEMPERATURE.
      RH  - RELATIVE HUMIDITY.  PRES - PRESSURE.
      HX  - HEAT INDEX.         WCI  - WIND CHILL INDEX.
$



USA.gov is the U.S. government's official web portal to all federal, state and local government web resources and services.